User: anonymous   Login
Location: Kuffner-Sternwarte
(48.2130°N, 16.2960°E)
Time: 14:18:35
(UTC+02:00)
Language:

LO-87 - Orbit

View from above orbital plane
View from above orbital plane
View from above satellite
View from above satellite

Ground track
Ground track

The orbit data is extracted from the following two-line orbital elements,

1 41557U 16033B   19171.15797780  .00000677  00000-0  28138-4 0  9994
2 41557  97.4180 258.6490 0012243 295.7287  64.2687 15.27203499170316
Epoch (UTC): 20 June 2019 03:47:29
Eccentricity: 0.0012243
inclination: 97.4180°
perigee height: 476 km
apogee height: 492 km
right ascension of ascending node: 258.6490°
argument of perigee: 295.7287°
revolutions per day: 15.27203499
mean anomaly at epoch: 64.2687°
orbit number at epoch: 17031

The dashed part of the orbit path shows where the satellite is in the earth's shadow,  

DLR